START_TIME,STEP,MOV.,M15,t_acc.,M20,t_acc.
1979-07-02 00:00:44.830 ,0,0,0.,24.0,0.,24.0
1979-07-02 00:01:08.830 ,1,1,0.,24.0,0.,24.0
1979-07-02 00:01:32.830 ,1,0,0.,24.0,0.,24.0
1979-07-02 00:01:56.830 ,2,1,0.,24.0,0.,24.0
1979-07-02 00:02:20.830 ,2,0,0.,24.0,0.,24.0
1979-07-02 00:02:44.830 ,3,1,0.,24.0,0.,24.0
1979-07-02 00:03:08.830 ,3,0,0.,24.0,0.,24.0
1979-07-02 00:03:32.830 ,4,1,0.,24.0,0.,24.0
1979-07-02 00:03:56.830 ,4,0,0.,24.0,0.,24.0
1979-07-02 00:04:20.830 ,5,1,0.,24.0,0.,24.0
1979-07-02 00:04:44.830 ,5,0,0.,24.0,0.,24.0
1979-07-02 00:05:08.830 ,6,1,0.,24.0,0.,24.0
1979-07-02 00:05:32.830 ,6,0,0.,24.0,0.,24.0
1979-07-02 00:05:56.830 ,7,1,0.,24.0,0.,24.0
1979-07-02 00:06:20.830 ,7,0,0.,24.0,0.,24.0
1979-07-02 00:06:44.830 ,7,1,0.,24.0,0.,24.0
1979-07-02 00:07:08.830 ,7,0,0.,24.0,0.,24.0
1979-07-02 00:07:32.830 ,6,1,0.,24.0,0.,24.0
1979-07-02 00:07:56.830 ,6,0,0.,24.0,0.,24.0
1979-07-02 00:08:20.830 ,5,1,0.,24.0,0.,24.0
1979-07-02 00:08:44.830 ,5,0,0.,24.0,0.,24.0
1979-07-02 00:09:08.830 ,4,1,0.,24.0,0.,24.0
1979-07-02 00:09:32.830 ,4,0,0.,24.0,0.,24.0
1979-07-02 00:09:56.830 ,3,1,0.,24.0,0.,24.0
1979-07-02 00:10:20.830 ,3,0,0.,24.0,0.,24.0
1979-07-02 00:10:44.830 ,2,1,0.,24.0,0.,24.0
1979-07-02 00:11:08.830 ,2,0,0.,24.0,0.,24.0
1979-07-02 00:11:32.830 ,1,1,0.,24.0,0.,24.0
1979-07-02 00:11:56.830 ,1,0,0.,24.0,0.,24.0
1979-07-02 00:12:20.830 ,0,1,0.,24.0,0.,24.0
1979-07-02 00:12:44.830 ,0,0,0.,24.0,0.,24.0
1979-07-02 00:13:08.830 ,0,1,0.,24.0,0.,24.0
1979-07-02 00:13:32.830 ,0,0,0.,24.0,0.,24.0
1979-07-02 00:13:56.830 ,1,1,0.,24.0,0.,24.0
1979-07-02 00:14:20.830 ,1,0,0.,24.0,0.,24.0
1979-07-02 00:14:44.830 ,2,1,0.,24.0,0.,24.0
1979-07-02 00:15:08.830 ,2,0,0.,24.0,0.,24.0
1979-07-02 00:15:32.830 ,3,1,0.,24.0,0.,24.0
1979-07-02 00:15:56.830 ,3,0,0.,24.0,0.,24.0
1979-07-02 00:16:20.830 ,4,1,0.,24.0,0.,24.0
1979-07-02 00:16:44.830 ,4,0,0.,24.0,0.,24.0
1979-07-02 00:17:08.830 ,5,1,0.,24.0,0.,24.0
1979-07-02 00:17:32.830 ,5,0,0.,24.0,0.,24.0
1979-07-02 00:17:56.830 ,6,1,0.,24.0,0.,24.0
1979-07-02 00:18:20.830 ,6,0,0.,24.0,0.,24.0
1979-07-02 00:18:44.830 ,7,0,0.,24.0,0.,24.0
1979-07-02 00:19:08.830 ,7,0,0.,24.0,0.,24.0
1979-07-02 00:19:32.830 ,3,1,0.,24.0,0.,24.0
1979-07-02 00:19:56.830 ,0,1,0.,24.0,0.,24.0
1979-07-02 00:20:20.830 ,4,1,0.,24.0,0.,24.0
1979-07-02 00:20:44.830 ,7,1,0.,24.0,0.,24.0
1979-07-02 00:21:08.830 ,3,1,0.,24.0,0.,24.0
1979-07-02 00:21:32.830 ,0,1,0.,24.0,0.,24.0
1979-07-02 00:21:56.830 ,4,1,0.,24.0,0.,24.0
1979-07-02 00:22:20.830 ,7,1,0.,24.0,0.,24.0
1979-07-02 00:22:44.830 ,3,1,0.,24.0,0.,24.0
1979-07-02 00:23:08.830 ,0,1,0.,24.0,0.,24.0
1979-07-02 00:23:32.830 ,4,1,0.,24.0,0.,24.0
1979-07-02 00:23:56.830 ,7,1,0.,24.0,0.,24.0
1979-07-02 00:24:20.830 ,3,1,0.,24.0,0.,24.0
1979-07-02 00:24:44.830 ,0,1,0.,24.0,0.,24.0
1979-07-02 00:25:08.830 ,4,1,0.,24.0,0.,24.0
1979-07-02 00:25:32.830 ,7,1,0.,24.0,0.,24.0
1979-07-02 00:25:56.830 ,3,1,0.,24.0,0.,24.0
1979-07-02 00:26:20.830 ,0,1,0.,24.0,0.,24.0
1979-07-02 00:26:44.830 ,4,1,0.,24.0,0.,24.0
1979-07-02 00:27:08.830 ,7,1,0.,24.0,0.,24.0
1979-07-02 00:27:32.830 ,3,1,0.,24.0,0.,24.0
1979-07-02 00:27:56.830 ,0,1,0.,24.0,0.,24.0
1979-07-02 00:28:20.830 ,4,1,0.,24.0,0.,24.0
1979-07-02 00:28:44.830 ,7,1,0.,24.0,0.,24.0
1979-07-02 00:29:08.830 ,3,1,0.,24.0,0.,24.0
1979-07-02 00:29:32.830 ,0,1,0.,24.0,0.,24.0
1979-07-02 00:29:56.830 ,0,0,0.,24.0,0.,24.0
1979-07-02 00:30:20.830 ,0,0,0.,24.0,0.,24.0
1979-07-02 00:30:44.830 ,5,1,0.,24.0,0.,24.0
1979-07-02 00:31:08.830 ,5,0,0.,24.0,0.,24.0
1979-07-02 00:31:32.830 ,4,1,0.,24.0,0.,24.0
1979-07-02 00:31:56.830 ,4,0,0.,24.0,0.,24.0
1979-07-02 00:32:20.830 ,3,1,0.,24.0,0.,24.0
1979-07-02 00:32:44.830 ,3,0,0.,24.0,0.,24.0
1979-07-02 00:33:08.830 ,2,1,0.,24.0,0.,24.0
1979-07-02 00:33:32.830 ,2,0,0.,24.0,0.,24.0
1979-07-02 00:33:56.830 ,1,1,0.,24.0,0.,24.0
1979-07-02 00:34:20.820 ,1,0,0.,24.0,0.,24.0
1979-07-02 00:34:44.820 ,0,1,0.,24.0,0.,24.0
1979-07-02 00:35:08.820 ,0,0,0.,24.0,0.,24.0
1979-07-02 00:35:32.820 ,0,1,0.,24.0,0.,24.0
1979-07-02 00:35:56.820 ,0,0,0.,24.0,0.,24.0
1979-07-02 00:36:20.820 ,1,1,0.,24.0,0.,24.0
1979-07-02 00:36:44.820 ,1,0,0.,24.0,0.,24.0
1979-07-02 00:37:08.820 ,2,1,0.,24.0,0.,24.0
1979-07-02 00:37:32.820 ,2,0,0.,24.0,0.,24.0
1979-07-02 00:37:56.820 ,3,1,0.,24.0,0.,24.0
1979-07-02 00:38:20.820 ,3,0,0.,24.0,0.,24.0
1979-07-02 00:38:44.820 ,4,1,0.,24.0,0.,24.0
1979-07-02 00:39:08.820 ,4,0,0.,24.0,0.,24.0
1979-07-02 00:39:32.820 ,5,1,0.,24.0,0.,24.0
1979-07-02 00:39:56.820 ,0,0,0.,24.0,0.,24.0
1979-07-02 00:40:26.220 ,0,0,0.,24.0,0.,24.0
1979-07-02 00:40:44.820 ,0,0,0.,24.0,0.,24.0
1979-07-02 00:41:08.820 ,7,1,0.,24.0,0.,24.0
1979-07-02 00:41:32.820 ,7,0,0.,24.0,0.,24.0
1979-07-02 00:41:56.820 ,7,1,0.,24.0,0.,24.0
1979-07-02 00:42:20.820 ,7,0,0.,24.0,0.,24.0
1979-07-02 00:42:44.820 ,6,1,0.,24.0,0.,24.0
1979-07-02 00:43:08.820 ,6,0,0.,24.0,0.,24.0
1979-07-02 00:43:32.820 ,5,1,0.,24.0,0.,24.0
1979-07-02 00:43:56.820 ,5,0,0.,24.0,0.,24.0
1979-07-02 00:44:20.820 ,4,1,0.,24.0,0.,24.0
1979-07-02 00:44:44.820 ,4,0,0.,24.0,0.,24.0
1979-07-02 00:45:08.820 ,3,1,0.,24.0,0.,24.0
1979-07-02 00:45:32.820 ,3,0,0.,24.0,0.,24.0
1979-07-02 00:45:56.820 ,2,1,0.,24.0,0.,24.0
1979-07-02 00:46:20.820 ,2,0,0.,24.0,0.,24.0
1979-07-02 00:46:44.820 ,1,1,0.,24.0,0.,24.0
1979-07-02 00:47:08.820 ,1,0,0.,24.0,0.,24.0
1979-07-02 00:47:32.820 ,0,1,0.,24.0,0.,24.0
1979-07-02 00:47:56.820 ,0,0,0.,24.0,0.,24.0
1979-07-02 00:48:20.820 ,0,1,0.,24.0,0.,24.0
1979-07-02 00:48:44.820 ,0,0,0.,24.0,0.,24.0
1979-07-02 00:49:08.820 ,1,1,0.,24.0,0.,24.0
1979-07-02 00:49:32.820 ,1,0,0.,24.0,0.,24.0
1979-07-02 00:49:56.820 ,2,1,0.,24.0,0.,24.0
1979-07-02 00:50:20.820 ,2,0,0.,24.0,0.,24.0
1979-07-02 00:50:44.820 ,3,1,0.,24.0,0.,24.0
1979-07-02 00:51:08.820 ,3,0,0.,24.0,0.,24.0
1979-07-02 00:51:32.820 ,4,1,0.,24.0,0.,24.0
1979-07-02 00:51:56.820 ,4,0,0.,24.0,0.,24.0
1979-07-02 00:52:20.820 ,5,1,0.,24.0,0.,24.0
1979-07-02 00:52:44.820 ,5,0,0.,24.0,0.,24.0
1979-07-02 00:53:08.820 ,6,1,0.,24.0,0.,24.0
1979-07-02 00:53:32.820 ,6,0,0.,24.0,0.,24.0
1979-07-02 00:53:56.820 ,7,1,0.,24.0,0.,24.0
1979-07-02 00:54:20.820 ,7,0,0.,24.0,0.,24.0
1979-07-02 00:54:44.820 ,7,1,0.,24.0,0.,24.0
1979-07-02 00:55:08.820 ,7,0,0.,24.0,0.,24.0
1979-07-02 00:56:20.820 ,0,0,0.,24.0,0.,24.0
1979-07-02 00:56:44.820 ,0,0,0.,24.0,0.,24.0
1979-07-02 00:57:08.820 ,4,1,0.,24.0,0.,24.0
1979-07-02 00:57:32.820 ,4,0,0.,24.0,0.,24.0
1979-07-02 00:57:56.820 ,3,1,0.,24.0,0.,24.0
1979-07-02 00:58:20.820 ,3,0,0.,24.0,0.,24.0
1979-07-02 00:58:44.820 ,2,1,0.,24.0,0.,24.0
1979-07-02 00:59:08.820 ,2,0,0.,24.0,0.,24.0
1979-07-02 00:59:32.820 ,1,1,0.,24.0,0.,24.0
1979-07-02 00:59:56.820 ,1,0,0.,24.0,0.,24.0
1979-07-02 01:00:20.820 ,0,1,0.,24.0,0.,24.0
1979-07-02 01:00:44.820 ,0,0,0.,24.0,0.,24.0
1979-07-02 01:01:08.820 ,0,1,0.,24.0,0.,24.0
1979-07-02 01:01:32.820 ,0,0,0.,24.0,0.,24.0
1979-07-02 01:01:56.820 ,1,1,0.,24.0,0.,24.0
1979-07-02 01:02:20.820 ,1,0,0.,24.0,0.,24.0
1979-07-02 01:02:44.820 ,2,1,0.,24.0,0.,24.0
1979-07-02 01:03:08.820 ,2,0,0.,24.0,0.,24.0
1979-07-02 01:03:32.820 ,3,1,0.,24.0,0.,24.0
1979-07-02 01:03:56.820 ,3,0,0.,24.0,0.,24.0
1979-07-02 01:04:20.820 ,4,1,0.,24.0,0.,24.0
1979-07-02 01:04:44.820 ,4,0,0.,24.0,0.,24.0
1979-07-02 01:05:08.820 ,5,1,0.,24.0,0.,24.0
1979-07-02 01:05:32.820 ,5,0,0.,24.0,0.,24.0
1979-07-02 01:05:56.820 ,6,1,0.,24.0,0.,24.0
1979-07-02 01:06:20.820 ,6,0,0.,24.0,0.,24.0
1979-07-02 01:06:44.820 ,7,0,0.,24.0,0.,24.0
1979-07-02 01:07:08.820 ,7,0,0.,24.0,0.,24.0
1979-07-02 01:07:32.820 ,3,1,0.,24.0,0.,24.0
1979-07-02 01:07:56.820 ,0,1,0.,24.0,0.,24.0
1979-07-02 01:08:20.820 ,4,1,0.,24.0,0.,24.0
1979-07-02 01:08:44.820 ,7,1,0.,24.0,0.,24.0
1979-07-02 01:09:08.820 ,3,1,0.,24.0,0.,24.0
1979-07-02 01:09:32.820 ,0,1,0.,24.0,0.,24.0
1979-07-02 01:09:56.820 ,4,1,1.,24.0,0.,24.0
1979-07-02 01:10:20.820 ,7,1,0.,24.0,0.,24.0
1979-07-02 01:10:44.820 ,3,1,0.,24.0,0.,24.0
1979-07-02 01:11:08.820 ,0,1,0.,24.0,0.,24.0
1979-07-02 01:11:32.820 ,4,1,0.,24.0,0.,24.0
1979-07-02 01:11:56.820 ,7,1,0.,24.0,0.,24.0
1979-07-02 01:12:20.820 ,3,1,0.,24.0,0.,24.0
1979-07-02 01:12:44.820 ,0,1,0.,24.0,0.,24.0
1979-07-02 01:13:08.820 ,4,1,0.,24.0,0.,24.0
1979-07-02 01:13:32.820 ,7,1,0.,24.0,0.,24.0
1979-07-02 01:13:56.820 ,3,1,0.,24.0,0.,24.0
1979-07-02 01:14:20.820 ,0,1,0.,24.0,0.,24.0
1979-07-02 01:14:44.820 ,4,1,0.,24.0,0.,24.0
1979-07-02 01:15:08.820 ,7,1,0.,24.0,0.,24.0
1979-07-02 01:15:32.820 ,3,1,0.,24.0,0.,24.0
1979-07-02 01:15:56.820 ,0,1,0.,24.0,0.,24.0
1979-07-02 01:16:20.820 ,4,1,0.,24.0,0.,24.0
1979-07-02 01:16:44.820 ,7,1,0.,24.0,0.,24.0
1979-07-02 01:17:08.820 ,3,1,0.,24.0,0.,24.0
1979-07-02 01:17:32.820 ,0,1,0.,24.0,0.,24.0
1979-07-02 01:17:56.820 ,0,0,0.,24.0,0.,24.0
1979-07-02 01:18:20.820 ,0,0,0.,24.0,0.,24.0
1979-07-02 01:18:44.820 ,5,1,0.,24.0,0.,24.0
1979-07-02 01:19:08.820 ,5,0,0.,24.0,0.,24.0
1979-07-02 01:19:32.820 ,4,1,0.,24.0,0.,24.0
1979-07-02 01:19:56.820 ,4,0,0.,24.0,0.,24.0
1979-07-02 01:20:20.820 ,3,1,0.,24.0,0.,24.0
1979-07-02 01:20:44.820 ,3,0,0.,24.0,0.,24.0
1979-07-02 01:21:08.820 ,2,1,0.,24.0,0.,24.0
1979-07-02 01:21:32.820 ,2,0,0.,24.0,0.,24.0
1979-07-02 01:21:56.820 ,1,1,0.,24.0,0.,24.0
1979-07-02 01:22:20.820 ,1,0,1.,24.0,0.,24.0
1979-07-02 01:22:44.820 ,0,1,0.,24.0,0.,24.0
1979-07-02 01:23:08.820 ,0,0,0.,24.0,0.,24.0
1979-07-02 01:23:32.820 ,0,1,0.,24.0,0.,24.0
1979-07-02 01:23:56.820 ,0,0,0.,24.0,0.,24.0
1979-07-02 01:24:20.820 ,1,1,0.,24.0,0.,24.0
1979-07-02 01:24:44.820 ,1,0,0.,24.0,0.,24.0
1979-07-02 01:25:08.820 ,2,1,0.,24.0,0.,24.0
1979-07-02 01:25:32.820 ,2,0,0.,24.0,0.,24.0
1979-07-02 01:25:56.820 ,3,1,0.,24.0,0.,24.0
1979-07-02 01:26:20.820 ,3,0,0.,24.0,0.,24.0
1979-07-02 01:26:44.820 ,4,1,0.,24.0,0.,24.0
1979-07-02 01:27:08.820 ,4,0,0.,24.0,0.,24.0
1979-07-02 01:27:32.820 ,5,1,0.,24.0,0.,24.0
1979-07-02 01:27:56.820 ,5,0,0.,24.0,0.,24.0
1979-07-02 01:28:20.820 ,6,1,0.,24.0,0.,24.0
1979-07-02 01:28:44.820 ,6,0,0.,24.0,0.,24.0
1979-07-02 01:29:08.820 ,7,1,0.,24.0,0.,24.0
1979-07-02 01:29:32.820 ,7,0,0.,24.0,0.,24.0
1979-07-02 01:29:56.820 ,7,1,0.,24.0,0.,24.0
1979-07-02 01:30:20.820 ,7,0,0.,24.0,0.,24.0
1979-07-02 01:30:44.820 ,6,1,0.,24.0,0.,24.0
1979-07-02 01:31:08.820 ,6,0,0.,24.0,0.,24.0
1979-07-02 01:31:32.820 ,5,1,0.,24.0,0.,24.0
1979-07-02 01:31:56.820 ,5,0,0.,24.0,0.,24.0
1979-07-02 01:32:20.820 ,4,1,0.,24.0,0.,24.0
1979-07-02 01:32:44.820 ,4,0,0.,24.0,0.,24.0
1979-07-02 01:33:08.820 ,3,1,0.,24.0,0.,24.0
1979-07-02 01:33:32.820 ,3,0,0.,24.0,0.,24.0
1979-07-02 01:33:56.820 ,2,1,0.,24.0,0.,24.0
1979-07-02 01:34:20.820 ,2,0,0.,24.0,0.,24.0
1979-07-02 01:34:44.820 ,1,1,0.,24.0,0.,24.0
1979-07-02 01:35:08.820 ,1,0,0.,24.0,0.,24.0
1979-07-02 01:35:32.820 ,0,1,0.,24.0,0.,24.0
1979-07-02 01:35:56.820 ,0,0,0.,24.0,0.,24.0
1979-07-02 01:36:20.820 ,0,1,0.,24.0,0.,24.0
1979-07-02 01:36:44.820 ,0,0,0.,24.0,0.,24.0
1979-07-02 01:37:08.820 ,1,1,0.,24.0,0.,24.0
1979-07-02 01:37:32.820 ,1,0,0.,24.0,0.,24.0
1979-07-02 01:37:56.820 ,2,1,0.,24.0,0.,24.0
1979-07-02 01:38:20.820 ,2,0,0.,24.0,0.,24.0
1979-07-02 01:38:44.820 ,3,1,0.,24.0,0.,24.0
1979-07-02 01:39:08.820 ,3,0,0.,24.0,0.,24.0
1979-07-02 01:39:32.820 ,4,1,0.,24.0,0.,24.0
1979-07-02 01:39:56.820 ,4,0,0.,24.0,0.,24.0
1979-07-02 01:40:20.820 ,5,1,0.,24.0,0.,24.0
1979-07-02 01:40:44.820 ,5,0,0.,24.0,0.,24.0
1979-07-02 01:41:08.820 ,6,1,0.,24.0,0.,24.0
1979-07-02 01:41:32.820 ,6,0,0.,24.0,0.,24.0
1979-07-02 01:41:56.820 ,7,1,0.,24.0,0.,24.0
1979-07-02 01:42:20.820 ,7,0,0.,24.0,0.,24.0
1979-07-02 01:42:44.820 ,7,1,0.,24.0,0.,24.0
1979-07-02 01:43:08.820 ,7,0,0.,24.0,0.,24.0
1979-07-02 01:43:32.820 ,6,1,0.,24.0,0.,24.0
1979-07-02 01:43:56.820 ,6,0,0.,24.0,0.,24.0
1979-07-02 01:44:20.820 ,5,1,0.,24.0,0.,24.0
1979-07-02 01:44:44.820 ,5,0,0.,24.0,0.,24.0
1979-07-02 01:45:08.820 ,4,1,0.,24.0,0.,24.0
1979-07-02 01:45:32.820 ,4,0,0.,24.0,0.,24.0
1979-07-02 01:45:56.820 ,3,1,0.,24.0,0.,24.0
1979-07-02 01:46:20.820 ,3,0,0.,24.0,0.,24.0
1979-07-02 01:46:44.820 ,2,1,0.,24.0,0.,24.0
1979-07-02 01:47:08.820 ,2,0,0.,24.0,0.,24.0
1979-07-02 01:47:32.820 ,1,1,0.,24.0,0.,24.0
1979-07-02 01:47:56.820 ,1,0,0.,24.0,0.,24.0
1979-07-02 01:48:20.820 ,0,1,0.,24.0,0.,24.0
1979-07-02 01:48:44.820 ,0,0,0.,24.0,0.,24.0
1979-07-02 01:49:08.820 ,0,1,0.,24.0,0.,24.0
1979-07-02 01:49:32.820 ,0,0,0.,24.0,0.,24.0
1979-07-02 01:49:56.820 ,1,1,0.,24.0,0.,24.0
1979-07-02 01:50:20.820 ,1,0,0.,24.0,0.,24.0
1979-07-02 01:50:44.820 ,2,1,0.,24.0,0.,24.0
1979-07-02 01:51:08.820 ,2,0,0.,24.0,0.,24.0
1979-07-02 01:51:32.820 ,3,1,0.,24.0,0.,24.0
1979-07-02 01:51:56.820 ,3,0,0.,24.0,0.,24.0
1979-07-02 01:52:20.820 ,4,1,0.,24.0,0.,24.0
1979-07-02 01:52:44.820 ,4,0,0.,24.0,0.,24.0
1979-07-02 01:53:08.820 ,5,1,0.,24.0,0.,24.0
1979-07-02 01:53:32.820 ,5,0,0.,24.0,0.,24.0
1979-07-02 01:53:56.820 ,6,1,0.,24.0,0.,24.0
1979-07-02 01:54:20.820 ,6,0,0.,24.0,0.,24.0
1979-07-02 01:54:44.820 ,7,0,0.,24.0,0.,24.0
1979-07-02 01:55:08.820 ,7,0,0.,24.0,0.,24.0
1979-07-02 01:55:32.820 ,3,1,0.,24.0,0.,24.0
1979-07-02 01:55:56.820 ,0,1,0.,24.0,0.,24.0
1979-07-02 01:56:20.820 ,4,1,0.,24.0,0.,24.0
1979-07-02 01:56:44.820 ,7,1,0.,24.0,0.,24.0
1979-07-02 01:57:08.820 ,3,1,0.,24.0,0.,24.0
1979-07-02 01:57:32.820 ,0,1,0.,24.0,0.,24.0
1979-07-02 01:57:56.820 ,4,1,0.,24.0,0.,24.0
1979-07-02 01:58:20.820 ,7,1,0.,24.0,0.,24.0
1979-07-02 01:58:44.820 ,3,1,0.,24.0,0.,24.0
1979-07-02 01:59:08.820 ,0,1,0.,24.0,0.,24.0
1979-07-02 01:59:32.820 ,4,1,0.,24.0,0.,24.0
1979-07-02 01:59:56.820 ,7,1,0.,24.0,0.,24.0
1979-07-02 02:00:20.820 ,3,1,0.,24.0,0.,24.0
1979-07-02 02:00:44.820 ,0,1,0.,24.0,0.,24.0
1979-07-02 02:01:08.820 ,4,1,0.,24.0,0.,24.0
1979-07-02 02:01:32.820 ,7,1,0.,24.0,0.,24.0
1979-07-02 02:01:56.820 ,3,1,0.,24.0,0.,24.0
1979-07-02 02:02:20.820 ,0,1,0.,24.0,0.,24.0
1979-07-02 02:02:44.820 ,4,1,0.,24.0,0.,24.0
1979-07-02 02:03:08.820 ,7,1,0.,24.0,0.,24.0
1979-07-02 02:03:32.820 ,3,1,0.,24.0,0.,24.0
1979-07-02 02:03:56.820 ,0,1,0.,24.0,0.,24.0
1979-07-02 02:04:20.820 ,4,1,0.,24.0,0.,24.0
1979-07-02 02:04:44.820 ,7,1,0.,24.0,0.,24.0
1979-07-02 02:05:08.820 ,3,1,0.,24.0,0.,24.0
1979-07-02 02:05:32.820 ,0,1,0.,24.0,0.,24.0
1979-07-02 02:05:56.820 ,0,0,0.,24.0,0.,24.0
1979-07-02 02:06:20.820 ,0,0,0.,24.0,0.,24.0
1979-07-02 02:06:44.820 ,5,1,0.,24.0,0.,24.0
1979-07-02 02:07:08.820 ,5,0,0.,24.0,0.,24.0
1979-07-02 02:07:32.820 ,4,1,0.,24.0,0.,24.0
1979-07-02 02:07:56.820 ,4,0,0.,24.0,0.,24.0
1979-07-02 02:08:20.820 ,3,1,0.,24.0,0.,24.0
1979-07-02 02:08:44.820 ,3,0,0.,24.0,0.,24.0
1979-07-02 02:09:08.820 ,2,1,0.,24.0,0.,24.0
1979-07-02 02:09:32.820 ,2,0,0.,24.0,0.,24.0
1979-07-02 02:09:56.820 ,1,1,0.,24.0,0.,24.0
1979-07-02 02:10:20.820 ,1,0,0.,24.0,0.,24.0
1979-07-02 02:10:44.820 ,0,1,0.,24.0,0.,24.0
1979-07-02 02:11:08.820 ,0,0,0.,24.0,0.,24.0
1979-07-02 02:11:32.820 ,0,1,0.,24.0,0.,24.0
1979-07-02 02:11:56.820 ,0,0,0.,24.0,0.,24.0
1979-07-02 02:12:20.820 ,1,1,0.,24.0,0.,24.0
1979-07-02 02:12:44.820 ,1,0,0.,24.0,0.,24.0
1979-07-02 02:13:08.820 ,2,1,0.,24.0,0.,24.0
1979-07-02 02:13:32.820 ,2,0,0.,24.0,0.,24.0
1979-07-02 02:13:56.820 ,3,1,0.,24.0,0.,24.0
1979-07-02 02:14:20.820 ,3,0,0.,24.0,0.,24.0
1979-07-02 02:14:44.820 ,4,1,0.,24.0,0.,24.0
1979-07-02 02:15:08.820 ,4,0,0.,24.0,0.,24.0
1979-07-02 02:16:20.820 ,0,0,0.,24.0,0.,24.0
1979-07-02 02:16:44.820 ,0,0,0.,24.0,0.,24.0
1979-07-02 02:17:08.820 ,7,1,0.,24.0,0.,24.0
1979-07-02 02:17:32.820 ,7,0,0.,24.0,0.,24.0
1979-07-02 02:17:56.820 ,7,1,0.,24.0,0.,24.0
1979-07-02 02:18:20.820 ,7,0,0.,24.0,0.,24.0
1979-07-02 02:18:44.820 ,6,1,0.,24.0,0.,24.0
1979-07-02 02:19:08.820 ,6,0,0.,24.0,0.,24.0
1979-07-02 02:19:32.820 ,5,1,0.,24.0,0.,24.0
1979-07-02 02:19:56.820 ,5,0,0.,24.0,0.,24.0
1979-07-02 02:20:20.820 ,4,1,0.,24.0,0.,24.0
1979-07-02 02:20:44.820 ,4,0,0.,24.0,0.,24.0
1979-07-02 02:21:08.820 ,3,1,0.,24.0,0.,24.0
1979-07-02 02:21:32.820 ,3,0,0.,24.0,0.,24.0
1979-07-02 02:21:56.820 ,2,1,0.,24.0,0.,24.0
1979-07-02 02:22:20.820 ,2,0,0.,24.0,0.,24.0
1979-07-02 02:22:44.820 ,1,1,0.,24.0,0.,24.0
1979-07-02 02:23:08.820 ,1,0,0.,24.0,0.,24.0
1979-07-02 02:23:32.820 ,0,1,0.,24.0,0.,24.0
1979-07-02 02:23:56.820 ,0,0,0.,24.0,0.,24.0
1979-07-02 02:24:20.820 ,0,1,0.,24.0,0.,24.0
1979-07-02 02:24:44.820 ,0,0,0.,24.0,0.,24.0
1979-07-02 02:25:08.820 ,1,1,0.,24.0,0.,24.0
1979-07-02 02:25:32.820 ,1,0,0.,24.0,0.,24.0
1979-07-02 02:25:56.820 ,2,1,0.,24.0,0.,24.0
1979-07-02 02:26:20.820 ,2,0,0.,24.0,0.,24.0
1979-07-02 02:26:44.820 ,3,1,0.,24.0,0.,24.0
1979-07-02 02:27:08.820 ,3,0,0.,24.0,0.,24.0
1979-07-02 02:27:32.820 ,4,1,0.,24.0,0.,24.0
1979-07-02 02:27:56.820 ,4,0,0.,24.0,0.,24.0
1979-07-02 02:28:20.820 ,5,1,0.,24.0,0.,24.0
1979-07-02 02:28:44.820 ,5,0,0.,24.0,0.,24.0
1979-07-02 02:29:08.820 ,6,1,0.,24.0,0.,24.0
1979-07-02 02:29:32.820 ,0,0,,0,,0
1979-07-02 02:29:41.820 ,0,0,,0,,0
1979-07-02 02:29:41.820 ,0,0,,0,,0
1979-07-02 02:29:42.420 ,0,0,0.,24.0,0.,24.0
1979-07-02 02:29:56.820 ,7,1,0.,24.0,0.,24.0
1979-07-02 02:30:20.820 ,7,0,0.,24.0,0.,24.0
1979-07-02 02:30:44.820 ,7,1,0.,24.0,0.,24.0
1979-07-02 02:31:08.820 ,7,0,0.,24.0,0.,24.0
1979-07-02 02:31:32.820 ,6,1,0.,24.0,0.,24.0
1979-07-02 02:31:56.820 ,6,0,0.,24.0,0.,24.0
1979-07-02 02:32:20.820 ,5,1,1.,24.0,0.,24.0
1979-07-02 02:32:44.820 ,5,0,0.,24.0,0.,24.0
1979-07-02 02:33:08.820 ,4,1,0.,24.0,0.,24.0
1979-07-02 02:33:32.820 ,4,0,0.,24.0,0.,24.0
1979-07-02 02:33:56.820 ,3,1,0.,24.0,0.,24.0
1979-07-02 02:34:20.820 ,0,0,,0,,0
1979-07-02 02:34:44.820 ,2,1,0.,24.0,0.,24.0
1979-07-02 02:35:08.820 ,2,0,0.,24.0,0.,24.0
1979-07-02 02:35:32.820 ,1,1,0.,24.0,0.,24.0
1979-07-02 02:35:56.820 ,1,0,0.,24.0,0.,24.0
1979-07-02 02:36:20.820 ,0,1,0.,24.0,0.,24.0
1979-07-02 02:36:44.820 ,0,0,0.,24.0,0.,24.0
1979-07-02 02:37:08.820 ,0,1,0.,24.0,0.,24.0
1979-07-02 02:37:32.820 ,0,0,0.,24.0,0.,24.0
1979-07-02 02:37:56.820 ,1,1,0.,24.0,0.,24.0
1979-07-02 02:38:20.820 ,1,0,0.,24.0,0.,24.0
1979-07-02 02:38:44.820 ,2,1,0.,24.0,0.,24.0
1979-07-02 02:39:08.820 ,2,0,0.,24.0,0.,24.0
1979-07-02 02:39:32.820 ,3,1,0.,24.0,0.,24.0
1979-07-02 02:39:56.820 ,3,0,0.,24.0,0.,24.0
1979-07-02 02:40:20.820 ,4,1,0.,24.0,0.,24.0
1979-07-02 02:40:44.820 ,4,0,0.,24.0,0.,24.0
1979-07-02 02:41:08.820 ,5,1,0.,24.0,0.,24.0
1979-07-02 02:41:32.820 ,5,0,0.,24.0,0.,24.0
1979-07-02 02:41:56.820 ,6,1,0.,24.0,0.,24.0
1979-07-02 02:42:20.820 ,6,0,0.,24.0,0.,24.0
1979-07-02 02:42:44.820 ,7,0,0.,24.0,0.,24.0
1979-07-02 02:43:08.820 ,7,0,0.,24.0,0.,24.0
1979-07-02 02:43:32.820 ,3,1,0.,24.0,0.,24.0
1979-07-02 02:43:56.820 ,0,1,0.,24.0,0.,24.0
1979-07-02 02:44:20.820 ,4,1,0.,24.0,0.,24.0
1979-07-02 02:44:44.820 ,7,1,0.,24.0,0.,24.0
1979-07-02 02:45:08.820 ,3,1,0.,24.0,0.,24.0
1979-07-02 02:45:32.820 ,0,1,0.,24.0,0.,24.0
1979-07-02 02:45:56.820 ,4,1,0.,24.0,0.,24.0
1979-07-02 02:46:20.820 ,7,1,0.,24.0,0.,24.0
1979-07-02 02:46:44.820 ,3,1,0.,24.0,0.,24.0
1979-07-02 02:47:08.820 ,0,1,0.,24.0,0.,24.0
1979-07-02 02:47:32.820 ,4,1,0.,24.0,0.,24.0
1979-07-02 02:47:56.820 ,7,1,0.,24.0,0.,24.0
1979-07-02 02:48:20.820 ,3,1,1.,24.0,0.,24.0
1979-07-02 02:48:44.820 ,0,1,0.,24.0,0.,24.0
1979-07-02 02:49:08.820 ,4,1,1.,24.0,0.,24.0
1979-07-02 02:49:32.820 ,7,1,0.,24.0,0.,24.0
1979-07-02 02:49:56.820 ,3,1,0.,24.0,0.,24.0
1979-07-02 02:50:20.820 ,0,1,0.,24.0,0.,24.0
1979-07-02 02:50:44.820 ,4,1,0.,24.0,0.,24.0
1979-07-02 02:51:08.820 ,7,1,0.,24.0,0.,24.0
1979-07-02 02:51:32.820 ,3,1,0.,24.0,0.,24.0
1979-07-02 02:51:56.820 ,0,1,0.,24.0,0.,24.0
1979-07-02 02:52:20.820 ,4,1,0.,24.0,0.,24.0
1979-07-02 02:52:44.820 ,7,1,0.,24.0,0.,24.0
1979-07-02 02:53:08.820 ,3,1,0.,24.0,0.,24.0
1979-07-02 02:53:32.820 ,0,1,0.,24.0,0.,24.0
1979-07-02 02:53:56.820 ,0,0,0.,24.0,0.,24.0
1979-07-02 02:54:20.820 ,0,0,0.,24.0,0.,24.0
1979-07-02 02:54:44.820 ,5,1,0.,24.0,0.,24.0
1979-07-02 02:55:08.820 ,5,0,0.,24.0,0.,24.0
1979-07-02 02:55:32.820 ,4,1,0.,24.0,0.,24.0
1979-07-02 02:55:56.820 ,0,0,,0,,0
1979-07-02 02:56:20.820 ,3,1,0.,24.0,0.,24.0
1979-07-02 02:56:44.820 ,3,0,0.,24.0,0.,24.0
1979-07-02 02:57:08.820 ,2,1,0.,24.0,0.,24.0
1979-07-02 02:57:32.820 ,2,0,0.,24.0,0.,24.0
1979-07-02 02:57:56.820 ,1,1,0.,24.0,0.,24.0
1979-07-02 02:58:20.820 ,1,0,0.,24.0,0.,24.0
1979-07-02 02:58:44.820 ,0,1,0.,24.0,0.,24.0
1979-07-02 02:59:08.820 ,0,0,0.,24.0,0.,24.0
1979-07-02 02:59:32.820 ,0,1,0.,24.0,0.,24.0
1979-07-02 02:59:56.820 ,0,0,0.,24.0,0.,24.0
1979-07-02 03:00:20.820 ,1,1,0.,24.0,0.,24.0
